Year,Month,Day,Hour,Minute,Value (Times are PST for insolation in W/m^2)
2017,02,28,00,00,0.00
2017,02,28,00,01,0.00
2017,02,28,00,02,0.00
2017,02,28,00,03,0.00
2017,02,28,00,04,0.00
2017,02,28,00,05,0.00
2017,02,28,00,06,0.00
2017,02,28,00,07,0.00
2017,02,28,00,08,0.00
2017,02,28,00,09,0.00
2017,02,28,00,10,0.00
2017,02,28,00,11,0.00
2017,02,28,00,12,0.00
2017,02,28,00,13,0.00
2017,02,28,00,14,0.00
2017,02,28,00,15,0.00
2017,02,28,00,16,0.00
2017,02,28,00,17,0.00
2017,02,28,00,18,0.00
2017,02,28,00,19,0.00
2017,02,28,00,20,0.00
2017,02,28,00,21,0.00
2017,02,28,00,22,0.00
2017,02,28,00,23,0.00
2017,02,28,00,24,0.00
2017,02,28,00,25,0.00
2017,02,28,00,26,0.00
2017,02,28,00,27,0.00
2017,02,28,00,28,0.00
2017,02,28,00,29,0.00
2017,02,28,00,30,0.00
2017,02,28,00,31,0.00
2017,02,28,00,32,0.00
2017,02,28,00,33,0.00
2017,02,28,00,34,0.00
2017,02,28,00,35,0.00
2017,02,28,00,36,0.00
2017,02,28,00,37,0.00
2017,02,28,00,38,0.00
2017,02,28,00,39,0.00
2017,02,28,00,40,0.00
2017,02,28,00,41,0.00
2017,02,28,00,42,0.00
2017,02,28,00,43,0.00
2017,02,28,00,44,0.00
2017,02,28,00,45,0.00
2017,02,28,00,46,0.00
2017,02,28,00,47,0.00
2017,02,28,00,48,0.00
2017,02,28,00,49,0.00
2017,02,28,00,50,0.00
2017,02,28,00,51,0.00
2017,02,28,00,52,0.00
2017,02,28,00,53,0.00
2017,02,28,00,54,0.00
2017,02,28,00,55,0.00
2017,02,28,00,56,0.00
2017,02,28,00,57,0.00
2017,02,28,00,58,0.00
2017,02,28,00,59,0.00
2017,02,28,01,00,0.00
2017,02,28,01,01,0.00
2017,02,28,01,02,0.00
2017,02,28,01,03,0.00
2017,02,28,01,04,0.00
2017,02,28,01,05,0.00
2017,02,28,01,06,0.00
2017,02,28,01,07,0.00
2017,02,28,01,08,0.00
2017,02,28,01,09,0.00
2017,02,28,01,10,0.00
2017,02,28,01,11,0.00
2017,02,28,01,12,0.00
2017,02,28,01,13,0.00
2017,02,28,01,14,0.00
2017,02,28,01,15,0.00
2017,02,28,01,16,0.00
2017,02,28,01,17,0.00
2017,02,28,01,18,0.00
2017,02,28,01,19,0.00
2017,02,28,01,20,0.00
2017,02,28,01,21,0.00
2017,02,28,01,22,0.00
2017,02,28,01,23,0.00
2017,02,28,01,24,0.00
2017,02,28,01,25,0.00
2017,02,28,01,26,0.00
2017,02,28,01,27,0.00
2017,02,28,01,28,0.00
2017,02,28,01,29,0.00
2017,02,28,01,30,0.00
2017,02,28,01,31,0.00
2017,02,28,01,32,0.00
2017,02,28,01,33,0.00
2017,02,28,01,34,0.00
2017,02,28,01,35,0.00
2017,02,28,01,36,0.00
2017,02,28,01,37,0.00
2017,02,28,01,38,0.00
2017,02,28,01,39,0.00
2017,02,28,01,40,0.00
2017,02,28,01,41,0.00
2017,02,28,01,42,0.00
2017,02,28,01,43,0.00
2017,02,28,01,44,0.00
2017,02,28,01,45,0.00
2017,02,28,01,46,0.00
2017,02,28,01,47,0.00
2017,02,28,01,48,0.00
2017,02,28,01,49,0.00
2017,02,28,01,50,0.00
2017,02,28,01,51,0.00
2017,02,28,01,52,0.00
2017,02,28,01,53,0.00
2017,02,28,01,54,0.00
2017,02,28,01,55,0.00
2017,02,28,01,56,0.00
2017,02,28,01,57,0.00
2017,02,28,01,58,0.00
2017,02,28,01,59,0.00
2017,02,28,02,00,0.00
2017,02,28,02,01,0.00
2017,02,28,02,02,0.00
2017,02,28,02,03,0.00
2017,02,28,02,04,0.00
2017,02,28,02,05,0.00
2017,02,28,02,06,0.00
2017,02,28,02,07,0.00
2017,02,28,02,08,0.00
2017,02,28,02,09,0.00
2017,02,28,02,10,0.00
2017,02,28,02,11,0.00
2017,02,28,02,12,0.00
2017,02,28,02,13,0.00
2017,02,28,02,14,0.00
2017,02,28,02,15,0.00
2017,02,28,02,16,0.00
2017,02,28,02,17,0.00
2017,02,28,02,18,0.00
2017,02,28,02,19,0.00
2017,02,28,02,20,0.00
2017,02,28,02,21,0.00
2017,02,28,02,22,0.00
2017,02,28,02,23,0.00
2017,02,28,02,24,0.00
2017,02,28,02,25,0.00
2017,02,28,02,26,0.00
2017,02,28,02,27,0.00
2017,02,28,02,28,0.00
2017,02,28,02,29,0.00
2017,02,28,02,30,0.00
2017,02,28,02,31,0.00
2017,02,28,02,32,0.00
2017,02,28,02,33,0.00
2017,02,28,02,34,0.00
2017,02,28,02,35,0.00
2017,02,28,02,36,0.00
2017,02,28,02,37,0.00
2017,02,28,02,38,0.00
2017,02,28,02,39,0.00
2017,02,28,02,40,0.00
2017,02,28,02,41,0.00
2017,02,28,02,42,0.00
2017,02,28,02,43,0.00
2017,02,28,02,44,0.00
2017,02,28,02,45,0.00
2017,02,28,02,46,0.00
2017,02,28,02,47,0.00
2017,02,28,02,48,0.00
2017,02,28,02,49,0.00
2017,02,28,02,50,0.00
2017,02,28,02,51,0.00
2017,02,28,02,52,0.00
2017,02,28,02,53,0.00
2017,02,28,02,54,0.00
2017,02,28,02,55,0.00
2017,02,28,02,56,0.00
2017,02,28,02,57,0.00
2017,02,28,02,58,0.00
2017,02,28,02,59,0.00
2017,02,28,03,00,0.00
2017,02,28,03,01,0.00
2017,02,28,03,02,0.00
2017,02,28,03,03,0.00
2017,02,28,03,04,0.00
2017,02,28,03,05,0.00
2017,02,28,03,06,0.00
2017,02,28,03,07,0.00
2017,02,28,03,08,0.00
2017,02,28,03,09,0.00
2017,02,28,03,10,0.00
2017,02,28,03,11,0.00
2017,02,28,03,12,0.00
2017,02,28,03,13,0.00
2017,02,28,03,14,0.00
2017,02,28,03,15,0.00
2017,02,28,03,16,0.00
2017,02,28,03,17,0.00
2017,02,28,03,18,0.00
2017,02,28,03,19,0.00
2017,02,28,03,20,0.00
2017,02,28,03,21,0.00
2017,02,28,03,22,0.00
2017,02,28,03,23,0.00
2017,02,28,03,24,0.00
2017,02,28,03,25,0.00
2017,02,28,03,26,0.00
2017,02,28,03,27,0.00
2017,02,28,03,28,0.00
2017,02,28,03,29,0.00
2017,02,28,03,30,0.00
2017,02,28,03,31,0.00
2017,02,28,03,32,0.00
2017,02,28,03,33,0.00
2017,02,28,03,34,0.00
2017,02,28,03,35,0.00
2017,02,28,03,36,0.00
2017,02,28,03,37,0.00
2017,02,28,03,38,0.00
2017,02,28,03,39,0.00
2017,02,28,03,40,0.00
2017,02,28,03,41,0.00
2017,02,28,03,42,0.00
2017,02,28,03,43,0.00
2017,02,28,03,44,0.00
2017,02,28,03,45,0.00
2017,02,28,03,46,0.00
2017,02,28,03,47,0.00
2017,02,28,03,48,0.00
2017,02,28,03,49,0.00
2017,02,28,03,50,0.00
2017,02,28,03,51,0.00
2017,02,28,03,52,0.00
2017,02,28,03,53,0.00
2017,02,28,03,54,0.00
2017,02,28,03,55,0.00
2017,02,28,03,56,0.00
2017,02,28,03,57,0.00
2017,02,28,03,58,0.00
2017,02,28,03,59,0.00
2017,02,28,04,00,0.00
2017,02,28,04,01,0.00
2017,02,28,04,02,0.00
2017,02,28,04,03,0.00
2017,02,28,04,04,0.00
2017,02,28,04,05,0.00
2017,02,28,04,06,0.00
2017,02,28,04,07,0.00
2017,02,28,04,08,0.00
2017,02,28,04,09,0.00
2017,02,28,04,10,0.00
2017,02,28,04,11,0.00
2017,02,28,04,12,0.00
2017,02,28,04,13,0.00
2017,02,28,04,14,0.00
2017,02,28,04,15,0.00
2017,02,28,04,16,0.00
2017,02,28,04,17,0.00
2017,02,28,04,18,0.00
2017,02,28,04,19,0.00
2017,02,28,04,20,0.00
2017,02,28,04,21,0.00
2017,02,28,04,22,0.00
2017,02,28,04,23,0.00
2017,02,28,04,24,0.00
2017,02,28,04,25,0.00
2017,02,28,04,26,0.00
2017,02,28,04,27,0.00
2017,02,28,04,28,0.00
2017,02,28,04,29,0.00
2017,02,28,04,30,0.00
2017,02,28,04,31,0.00
2017,02,28,04,32,0.00
2017,02,28,04,33,0.00
2017,02,28,04,34,0.00
2017,02,28,04,35,0.00
2017,02,28,04,36,0.00
2017,02,28,04,37,0.00
2017,02,28,04,38,0.00
2017,02,28,04,39,0.00
2017,02,28,04,40,0.00
2017,02,28,04,41,0.00
2017,02,28,04,42,0.00
2017,02,28,04,43,0.00
2017,02,28,04,44,0.00
2017,02,28,04,45,0.00
2017,02,28,04,46,0.00
2017,02,28,04,47,0.00
2017,02,28,04,48,0.00
2017,02,28,04,49,0.00
2017,02,28,04,50,0.00
2017,02,28,04,51,0.00
2017,02,28,04,52,0.00
2017,02,28,04,53,0.00
2017,02,28,04,54,0.00
2017,02,28,04,55,0.00
2017,02,28,04,56,0.00
2017,02,28,04,57,0.00
2017,02,28,04,58,0.00
2017,02,28,04,59,0.00
2017,02,28,05,00,0.00
2017,02,28,05,01,0.00
2017,02,28,05,02,0.00
2017,02,28,05,03,0.00
2017,02,28,05,04,0.00
2017,02,28,05,05,0.00
2017,02,28,05,06,0.00
2017,02,28,05,07,0.00
2017,02,28,05,08,0.00
2017,02,28,05,09,0.00
2017,02,28,05,10,0.00
2017,02,28,05,11,0.00
2017,02,28,05,12,0.00
2017,02,28,05,13,0.00
2017,02,28,05,14,0.00
2017,02,28,05,15,0.00
2017,02,28,05,16,0.00
2017,02,28,05,17,0.00
2017,02,28,05,18,0.00
2017,02,28,05,19,0.00
2017,02,28,05,20,0.00
2017,02,28,05,21,0.00
2017,02,28,05,22,0.00
2017,02,28,05,23,0.00
2017,02,28,05,24,0.00
2017,02,28,05,25,0.00
2017,02,28,05,26,0.00
2017,02,28,05,27,0.00
2017,02,28,05,28,0.00
2017,02,28,05,29,0.00
2017,02,28,05,30,0.00
2017,02,28,05,31,0.00
2017,02,28,05,32,0.00
2017,02,28,05,33,0.00
2017,02,28,05,34,0.00
2017,02,28,05,35,0.00
2017,02,28,05,36,0.00
2017,02,28,05,37,0.00
2017,02,28,05,38,0.00
2017,02,28,05,39,0.00
2017,02,28,05,40,0.00
2017,02,28,05,41,0.00
2017,02,28,05,42,0.00
2017,02,28,05,43,0.00
2017,02,28,05,44,0.00
2017,02,28,05,45,0.00
2017,02,28,05,46,0.00
2017,02,28,05,47,0.00
2017,02,28,05,48,0.00
2017,02,28,05,49,0.00
2017,02,28,05,50,0.00
2017,02,28,05,51,0.00
2017,02,28,05,52,0.00
2017,02,28,05,53,0.00
2017,02,28,05,54,0.00
2017,02,28,05,55,0.00
2017,02,28,05,56,0.00
2017,02,28,05,57,0.00
2017,02,28,05,58,0.00
2017,02,28,05,59,0.00
2017,02,28,06,00,0.00
2017,02,28,06,01,0.00
2017,02,28,06,02,0.00
2017,02,28,06,03,0.00
2017,02,28,06,04,0.00
2017,02,28,06,05,0.00
2017,02,28,06,06,0.00
2017,02,28,06,07,0.00
2017,02,28,06,08,0.00
2017,02,28,06,09,0.00
2017,02,28,06,10,0.00
2017,02,28,06,11,0.00
2017,02,28,06,12,0.00
2017,02,28,06,13,0.00
2017,02,28,06,14,0.00
2017,02,28,06,15,0.00
2017,02,28,06,16,0.00
2017,02,28,06,17,0.00
2017,02,28,06,18,0.00
2017,02,28,06,19,0.00
2017,02,28,06,20,0.00
2017,02,28,06,21,0.00
2017,02,28,06,22,0.00
2017,02,28,06,23,0.00
2017,02,28,06,24,0.00
2017,02,28,06,25,0.00
2017,02,28,06,26,0.00
2017,02,28,06,27,0.00
2017,02,28,06,28,0.00
2017,02,28,06,29,0.00
2017,02,28,06,30,0.00
2017,02,28,06,31,0.00
2017,02,28,06,32,0.00
2017,02,28,06,33,0.00
2017,02,28,06,34,0.00
2017,02,28,06,35,0.00
2017,02,28,06,36,0.00
2017,02,28,06,37,0.00
2017,02,28,06,38,0.00
2017,02,28,06,39,0.00
2017,02,28,06,40,0.00
2017,02,28,06,41,0.00
2017,02,28,06,42,0.00
2017,02,28,06,43,0.00
2017,02,28,06,44,0.00
2017,02,28,06,45,0.00
2017,02,28,06,46,0.00
2017,02,28,06,47,0.00
2017,02,28,06,48,0.00
2017,02,28,06,49,0.00
2017,02,28,06,50,0.00
2017,02,28,06,51,0.00
2017,02,28,06,52,0.00
2017,02,28,06,53,0.00
2017,02,28,06,54,0.00
2017,02,28,06,55,0.00
2017,02,28,06,56,0.00
2017,02,28,06,57,0.00
2017,02,28,06,58,0.00
2017,02,28,06,59,0.00
2017,02,28,07,00,0.00
2017,02,28,07,01,0.00
2017,02,28,07,02,0.00
2017,02,28,07,03,4.20
2017,02,28,07,04,5.00
2017,02,28,07,05,5.00
2017,02,28,07,06,5.00
2017,02,28,07,07,5.00
2017,02,28,07,08,6.40
2017,02,28,07,09,7.00
2017,02,28,07,10,7.00
2017,02,28,07,11,7.00
2017,02,28,07,12,7.00
2017,02,28,07,13,7.00
2017,02,28,07,14,7.00
2017,02,28,07,15,7.10
2017,02,28,07,16,9.00
2017,02,28,07,17,9.00
2017,02,28,07,18,9.00
2017,02,28,07,19,9.00
2017,02,28,07,20,9.00
2017,02,28,07,21,9.10
2017,02,28,07,22,11.00
2017,02,28,07,23,11.00
2017,02,28,07,24,11.00
2017,02,28,07,25,11.00
2017,02,28,07,26,11.80
2017,02,28,07,27,12.00
2017,02,28,07,28,12.00
2017,02,28,07,29,12.70
2017,02,28,07,30,14.00
2017,02,28,07,31,15.30
2017,02,28,07,32,16.00
2017,02,28,07,33,16.20
2017,02,28,07,34,18.00
2017,02,28,07,35,18.40
2017,02,28,07,36,20.00
2017,02,28,07,37,22.40
2017,02,28,07,38,24.60
2017,02,28,07,39,26.00
2017,02,28,07,40,26.00
2017,02,28,07,41,26.00
2017,02,28,07,42,27.10
2017,02,28,07,43,28.00
2017,02,28,07,44,29.70
2017,02,28,07,45,34.60
2017,02,28,07,46,73.40
2017,02,28,07,47,104.90
2017,02,28,07,48,110.10
2017,02,28,07,49,113.10
2017,02,28,07,50,114.30
2017,02,28,07,51,122.00
2017,02,28,07,52,129.10
2017,02,28,07,53,138.70
2017,02,28,07,54,150.30
2017,02,28,07,55,160.20
2017,02,28,07,56,157.80
2017,02,28,07,57,139.50
2017,02,28,07,58,122.30
2017,02,28,07,59,129.20
2017,02,28,08,00,140.70
2017,02,28,08,01,125.40
2017,02,28,08,02,86.00
2017,02,28,08,03,73.20
2017,02,28,08,04,70.00
2017,02,28,08,05,71.00
2017,02,28,08,06,75.30
2017,02,28,08,07,84.40
2017,02,28,08,08,98.60
2017,02,28,08,09,121.10
2017,02,28,08,10,95.80
2017,02,28,08,11,132.00
2017,02,28,08,12,139.50
2017,02,28,08,13,103.00
2017,02,28,08,14,105.10
2017,02,28,08,15,174.70
2017,02,28,08,16,168.80
2017,02,28,08,17,111.20
2017,02,28,08,18,104.00
2017,02,28,08,19,104.00
2017,02,28,08,20,106.40
2017,02,28,08,21,128.00
2017,02,28,08,22,182.40
2017,02,28,08,23,268.10
2017,02,28,08,24,270.40
2017,02,28,08,25,269.20
2017,02,28,08,26,267.00
2017,02,28,08,27,267.00
2017,02,28,08,28,267.00
2017,02,28,08,29,265.30
2017,02,28,08,30,262.50
2017,02,28,08,31,263.70
2017,02,28,08,32,257.60
2017,02,28,08,33,199.00
2017,02,28,08,34,148.70
2017,02,28,08,35,117.30
2017,02,28,08,36,157.60
2017,02,28,08,37,261.40
2017,02,28,08,38,266.10
2017,02,28,08,39,205.30
2017,02,28,08,40,142.00
2017,02,28,08,41,180.20
2017,02,28,08,42,256.30
2017,02,28,08,43,270.50
2017,02,28,08,44,209.20
2017,02,28,08,45,255.40
2017,02,28,08,46,246.00
2017,02,28,08,47,266.60
2017,02,28,08,48,269.00
2017,02,28,08,49,266.40
2017,02,28,08,50,204.10
2017,02,28,08,51,243.30
2017,02,28,08,52,267.60
2017,02,28,08,53,216.40
2017,02,28,08,54,206.80
2017,02,28,08,55,238.00
2017,02,28,08,56,288.80
2017,02,28,08,57,282.50
2017,02,28,08,58,289.80
2017,02,28,08,59,250.00
2017,02,28,09,00,191.00
2017,02,28,09,01,101.00
2017,02,28,09,02,107.00
2017,02,28,09,03,134.10
2017,02,28,09,04,120.90
2017,02,28,09,05,110.70
2017,02,28,09,06,108.70
2017,02,28,09,07,116.40
2017,02,28,09,08,132.90
2017,02,28,09,09,132.40
2017,02,28,09,10,124.50
2017,02,28,09,11,122.20
2017,02,28,09,12,116.50
2017,02,28,09,13,119.20
2017,02,28,09,14,132.50
2017,02,28,09,15,146.00
2017,02,28,09,16,146.00
2017,02,28,09,17,276.10
2017,02,28,09,18,379.00
2017,02,28,09,19,366.00
2017,02,28,09,20,352.70
2017,02,28,09,21,360.10
2017,02,28,09,22,367.80
2017,02,28,09,23,367.00
2017,02,28,09,24,132.50
2017,02,28,09,25,104.60
2017,02,28,09,26,112.60
2017,02,28,09,27,125.40
2017,02,28,09,28,136.70
2017,02,28,09,29,150.40
2017,02,28,09,30,158.60
2017,02,28,09,31,176.00
2017,02,28,09,32,239.40
2017,02,28,09,33,357.00
2017,02,28,09,34,220.00
2017,02,28,09,35,150.60
2017,02,28,09,36,140.70
2017,02,28,09,37,133.50
2017,02,28,09,38,132.70
2017,02,28,09,39,134.00
2017,02,28,09,40,134.00
2017,02,28,09,41,134.90
2017,02,28,09,42,136.90
2017,02,28,09,43,137.50
2017,02,28,09,44,138.30
2017,02,28,09,45,135.90
2017,02,28,09,46,135.00
2017,02,28,09,47,136.70
2017,02,28,09,48,142.80
2017,02,28,09,49,150.00
2017,02,28,09,50,158.00
2017,02,28,09,51,166.00
2017,02,28,09,52,172.50
2017,02,28,09,53,178.30
2017,02,28,09,54,192.30
2017,02,28,09,55,229.80
2017,02,28,09,56,208.60
2017,02,28,09,57,198.10
2017,02,28,09,58,189.20
2017,02,28,09,59,183.20
2017,02,28,10,00,177.80
2017,02,28,10,01,168.80
2017,02,28,10,02,156.80
2017,02,28,10,03,145.10
2017,02,28,10,04,138.20
2017,02,28,10,05,135.40
2017,02,28,10,06,143.20
2017,02,28,10,07,146.30
2017,02,28,10,08,137.70
2017,02,28,10,09,138.60
2017,02,28,10,10,157.00
2017,02,28,10,11,162.00
2017,02,28,10,12,162.00
2017,02,28,10,13,162.00
2017,02,28,10,14,306.00
2017,02,28,10,15,393.40
2017,02,28,10,16,383.40
2017,02,28,10,17,374.20
2017,02,28,10,18,246.50
2017,02,28,10,19,236.30
2017,02,28,10,20,218.60
2017,02,28,10,21,232.00
2017,02,28,10,22,544.60
2017,02,28,10,23,594.00
2017,02,28,10,24,505.20
2017,02,28,10,25,228.20
2017,02,28,10,26,210.70
2017,02,28,10,27,225.00
2017,02,28,10,28,235.40
2017,02,28,10,29,292.00
2017,02,28,10,30,292.00
2017,02,28,10,31,292.00
2017,02,28,10,32,459.40
2017,02,28,10,33,571.00
2017,02,28,10,34,431.00
2017,02,28,10,35,410.00
2017,02,28,10,36,401.00
2017,02,28,10,37,371.50
2017,02,28,10,38,359.00
2017,02,28,10,39,299.70
2017,02,28,10,40,296.20
2017,02,28,10,41,322.00
2017,02,28,10,42,322.00
2017,02,28,10,43,322.00
2017,02,28,10,44,322.00
2017,02,28,10,45,541.50
2017,02,28,10,46,619.00
2017,02,28,10,47,552.90
2017,02,28,10,48,266.30
2017,02,28,10,49,255.00
2017,02,28,10,50,250.90
2017,02,28,10,51,255.60
2017,02,28,10,52,272.40
2017,02,28,10,53,322.00
2017,02,28,10,54,304.60
2017,02,28,10,55,318.50
2017,02,28,10,56,345.00
2017,02,28,10,57,511.20
2017,02,28,10,58,503.70
2017,02,28,10,59,452.20
2017,02,28,11,00,304.00
2017,02,28,11,01,301.00
2017,02,28,11,02,342.40
2017,02,28,11,03,332.80
2017,02,28,11,04,328.10
2017,02,28,11,05,383.20
2017,02,28,11,06,341.70
2017,02,28,11,07,309.10
2017,02,28,11,08,250.30
2017,02,28,11,09,221.80
2017,02,28,11,10,203.10
2017,02,28,11,11,194.70
2017,02,28,11,12,185.10
2017,02,28,11,13,176.80
2017,02,28,11,14,167.30
2017,02,28,11,15,156.50
2017,02,28,11,16,141.10
2017,02,28,11,17,137.00
2017,02,28,11,18,137.90
2017,02,28,11,19,141.80
2017,02,28,11,20,146.90
2017,02,28,11,21,148.90
2017,02,28,11,22,156.50
2017,02,28,11,23,169.60
2017,02,28,11,24,202.20
2017,02,28,11,25,240.50
2017,02,28,11,26,253.00
2017,02,28,11,27,332.90
2017,02,28,11,28,309.10
2017,02,28,11,29,299.70
2017,02,28,11,30,292.70
2017,02,28,11,31,272.80
2017,02,28,11,32,256.80
2017,02,28,11,33,243.90
2017,02,28,11,34,230.90
2017,02,28,11,35,225.60
2017,02,28,11,36,226.50
2017,02,28,11,37,243.70
2017,02,28,11,38,261.80
2017,02,28,11,39,286.70
2017,02,28,11,40,295.40
2017,02,28,11,41,300.40
2017,02,28,11,42,313.30
2017,02,28,11,43,324.70
2017,02,28,11,44,327.00
2017,02,28,11,45,320.90
2017,02,28,11,46,267.00
2017,02,28,11,47,296.30
2017,02,28,11,48,325.50
2017,02,28,11,49,355.00
2017,02,28,11,50,369.50
2017,02,28,11,51,340.80
2017,02,28,11,52,359.60
2017,02,28,11,53,416.90
2017,02,28,11,54,466.00
2017,02,28,11,55,787.40
2017,02,28,11,56,916.00
2017,02,28,11,57,916.00
2017,02,28,11,58,760.00
2017,02,28,11,59,372.40
2017,02,28,12,00,310.00
2017,02,28,12,01,329.80
2017,02,28,12,02,346.60
2017,02,28,12,03,422.20
2017,02,28,12,04,368.00
2017,02,28,12,05,304.00
2017,02,28,12,06,302.00
2017,02,28,12,07,315.90
2017,02,28,12,08,333.00
2017,02,28,12,09,346.00
2017,02,28,12,10,346.00
2017,02,28,12,11,518.30
2017,02,28,12,12,675.00
2017,02,28,12,13,675.00
2017,02,28,12,14,385.50
2017,02,28,12,15,355.00
2017,02,28,12,16,316.90
2017,02,28,12,17,246.70
2017,02,28,12,18,237.00
2017,02,28,12,19,240.00
2017,02,28,12,20,256.70
2017,02,28,12,21,300.80
2017,02,28,12,22,354.10
2017,02,28,12,23,352.30
2017,02,28,12,24,380.70
2017,02,28,12,25,373.00
2017,02,28,12,26,358.40
2017,02,28,12,27,388.10
2017,02,28,12,28,431.00
2017,02,28,12,29,358.10
2017,02,28,12,30,286.00
2017,02,28,12,31,260.10
2017,02,28,12,32,223.90
2017,02,28,12,33,187.30
2017,02,28,12,34,168.10
2017,02,28,12,35,160.90
2017,02,28,12,36,161.40
2017,02,28,12,37,164.50
2017,02,28,12,38,169.90
2017,02,28,12,39,176.00
2017,02,28,12,40,179.90
2017,02,28,12,41,189.00
2017,02,28,12,42,197.20
2017,02,28,12,43,258.40
2017,02,28,12,44,220.60
2017,02,28,12,45,233.70
2017,02,28,12,46,223.10
2017,02,28,12,47,220.50
2017,02,28,12,48,212.50
2017,02,28,12,49,197.60
2017,02,28,12,50,187.00
2017,02,28,12,51,193.00
2017,02,28,12,52,204.50
2017,02,28,12,53,201.60
2017,02,28,12,54,185.90
2017,02,28,12,55,181.20
2017,02,28,12,56,217.40
2017,02,28,12,57,243.00
2017,02,28,12,58,341.10
2017,02,28,12,59,431.00
2017,02,28,13,00,431.00
2017,02,28,13,01,412.30
2017,02,28,13,02,227.40
2017,02,28,13,03,219.90
2017,02,28,13,04,185.70
2017,02,28,13,05,198.60
2017,02,28,13,06,207.00
2017,02,28,13,07,628.90
2017,02,28,13,08,629.40
2017,02,28,13,09,637.00
2017,02,28,13,10,637.30
2017,02,28,13,11,634.40
2017,02,28,13,12,611.30
2017,02,28,13,13,598.50
2017,02,28,13,14,613.00
2017,02,28,13,15,587.30
2017,02,28,13,16,606.30
2017,02,28,13,17,621.00
2017,02,28,13,18,621.00
2017,02,28,13,19,621.00
2017,02,28,13,20,621.00
2017,02,28,13,21,417.50
2017,02,28,13,22,153.00
2017,02,28,13,23,153.00
2017,02,28,13,24,147.70
2017,02,28,13,25,186.40
2017,02,28,13,26,251.00
2017,02,28,13,27,251.00
2017,02,28,13,28,195.60
2017,02,28,13,29,186.20
2017,02,28,13,30,180.50
2017,02,28,13,31,179.00
2017,02,28,13,32,337.30
2017,02,28,13,33,641.00
2017,02,28,13,34,583.00
2017,02,28,13,35,586.40
2017,02,28,13,36,616.80
2017,02,28,13,37,620.00
2017,02,28,13,38,626.40
2017,02,28,13,39,641.50
2017,02,28,13,40,652.00
2017,02,28,13,41,652.00
2017,02,28,13,42,221.50
2017,02,28,13,43,219.30
2017,02,28,13,44,248.00
2017,02,28,13,45,180.50
2017,02,28,13,46,186.30
2017,02,28,13,47,178.90
2017,02,28,13,48,180.60
2017,02,28,13,49,160.10
2017,02,28,13,50,154.30
2017,02,28,13,51,156.00
2017,02,28,13,52,156.00
2017,02,28,13,53,140.20
2017,02,28,13,54,154.70
2017,02,28,13,55,209.00
2017,02,28,13,56,384.30
2017,02,28,13,57,657.00
2017,02,28,13,58,657.00
2017,02,28,13,59,657.00
2017,02,28,14,00,592.80
2017,02,28,14,01,293.00
2017,02,28,14,02,300.60
2017,02,28,14,03,215.90
2017,02,28,14,04,165.70
2017,02,28,14,05,145.60
2017,02,28,14,06,151.50
2017,02,28,14,07,176.40
2017,02,28,14,08,203.10
2017,02,28,14,09,225.10
2017,02,28,14,10,245.50
2017,02,28,14,11,257.40
2017,02,28,14,12,284.80
2017,02,28,14,13,310.70
2017,02,28,14,14,320.30
2017,02,28,14,15,317.70
2017,02,28,14,16,304.40
2017,02,28,14,17,295.50
2017,02,28,14,18,292.40
2017,02,28,14,19,294.00
2017,02,28,14,20,291.90
2017,02,28,14,21,288.00
2017,02,28,14,22,282.10
2017,02,28,14,23,275.80
2017,02,28,14,24,268.70
2017,02,28,14,25,260.40
2017,02,28,14,26,254.10
2017,02,28,14,27,250.30
2017,02,28,14,28,245.00
2017,02,28,14,29,239.00
2017,02,28,14,30,234.60
2017,02,28,14,31,227.20
2017,02,28,14,32,219.10
2017,02,28,14,33,211.10
2017,02,28,14,34,204.90
2017,02,28,14,35,204.20
2017,02,28,14,36,206.90
2017,02,28,14,37,210.80
2017,02,28,14,38,213.60
2017,02,28,14,39,215.40
2017,02,28,14,40,219.40
2017,02,28,14,41,221.70
2017,02,28,14,42,225.60
2017,02,28,14,43,227.90
2017,02,28,14,44,229.00
2017,02,28,14,45,226.00
2017,02,28,14,46,225.00
2017,02,28,14,47,220.80
2017,02,28,14,48,219.40
2017,02,28,14,49,217.00
2017,02,28,14,50,214.80
2017,02,28,14,51,211.70
2017,02,28,14,52,209.10
2017,02,28,14,53,207.00
2017,02,28,14,54,207.00
2017,02,28,14,55,205.60
2017,02,28,14,56,202.70
2017,02,28,14,57,200.40
2017,02,28,14,58,199.10
2017,02,28,14,59,199.00
2017,02,28,15,00,199.00
2017,02,28,15,01,196.90
2017,02,28,15,02,193.70
2017,02,28,15,03,192.20
2017,02,28,15,04,188.00
2017,02,28,15,05,185.30
2017,02,28,15,06,182.20
2017,02,28,15,07,181.00
2017,02,28,15,08,179.70
2017,02,28,15,09,179.00
2017,02,28,15,10,178.00
2017,02,28,15,11,177.50
2017,02,28,15,12,174.40
2017,02,28,15,13,171.50
2017,02,28,15,14,168.10
2017,02,28,15,15,165.30
2017,02,28,15,16,163.00
2017,02,28,15,17,162.00
2017,02,28,15,18,161.20
2017,02,28,15,19,158.90
2017,02,28,15,20,156.60
2017,02,28,15,21,155.10
2017,02,28,15,22,154.50
2017,02,28,15,23,150.40
2017,02,28,15,24,148.60
2017,02,28,15,25,146.80
2017,02,28,15,26,143.00
2017,02,28,15,27,139.10
2017,02,28,15,28,134.40
2017,02,28,15,29,131.30
2017,02,28,15,30,128.60
2017,02,28,15,31,125.70
2017,02,28,15,32,123.50
2017,02,28,15,33,121.10
2017,02,28,15,34,117.60
2017,02,28,15,35,115.00
2017,02,28,15,36,112.10
2017,02,28,15,37,109.70
2017,02,28,15,38,107.50
2017,02,28,15,39,106.90
2017,02,28,15,40,104.80
2017,02,28,15,41,104.00
2017,02,28,15,42,103.00
2017,02,28,15,43,102.00
2017,02,28,15,44,100.40
2017,02,28,15,45,101.80
2017,02,28,15,46,102.00
2017,02,28,15,47,102.00
2017,02,28,15,48,102.00
2017,02,28,15,49,100.70
2017,02,28,15,50,98.30
2017,02,28,15,51,98.00
2017,02,28,15,52,98.50
2017,02,28,15,53,100.80
2017,02,28,15,54,103.10
2017,02,28,15,55,104.00
2017,02,28,15,56,102.30
2017,02,28,15,57,102.30
2017,02,28,15,58,104.30
2017,02,28,15,59,105.00
2017,02,28,16,00,106.20
2017,02,28,16,01,108.40
2017,02,28,16,02,110.70
2017,02,28,16,03,113.20
2017,02,28,16,04,114.50
2017,02,28,16,05,117.80
2017,02,28,16,06,120.60
2017,02,28,16,07,124.00
2017,02,28,16,08,126.90
2017,02,28,16,09,128.30
2017,02,28,16,10,130.00
2017,02,28,16,11,130.00
2017,02,28,16,12,128.80
2017,02,28,16,13,128.00
2017,02,28,16,14,128.00
2017,02,28,16,15,128.40
2017,02,28,16,16,130.00
2017,02,28,16,17,130.00
2017,02,28,16,18,128.70
2017,02,28,16,19,128.00
2017,02,28,16,20,126.70
2017,02,28,16,21,122.60
2017,02,28,16,22,121.00
2017,02,28,16,23,120.50
2017,02,28,16,24,115.80
2017,02,28,16,25,114.00
2017,02,28,16,26,112.80
2017,02,28,16,27,110.60
2017,02,28,16,28,109.00
2017,02,28,16,29,109.00
2017,02,28,16,30,109.00
2017,02,28,16,31,110.70
2017,02,28,16,32,127.90
2017,02,28,16,33,138.30
2017,02,28,16,34,117.50
2017,02,28,16,35,105.20
2017,02,28,16,36,100.60
2017,02,28,16,37,98.30
2017,02,28,16,38,95.30
2017,02,28,16,39,101.60
2017,02,28,16,40,109.30
2017,02,28,16,41,100.60
2017,02,28,16,42,98.00
2017,02,28,16,43,98.00
2017,02,28,16,44,100.30
2017,02,28,16,45,102.00
2017,02,28,16,46,102.90
2017,02,28,16,47,107.00
2017,02,28,16,48,114.00
2017,02,28,16,49,119.70
2017,02,28,16,50,120.50
2017,02,28,16,51,117.40
2017,02,28,16,52,114.60
2017,02,28,16,53,111.80
2017,02,28,16,54,109.50
2017,02,28,16,55,108.90
2017,02,28,16,56,107.00
2017,02,28,16,57,107.70
2017,02,28,16,58,106.60
2017,02,28,16,59,102.70
2017,02,28,17,00,98.90
2017,02,28,17,01,93.00
2017,02,28,17,02,87.60
2017,02,28,17,03,86.00
2017,02,28,17,04,86.00
2017,02,28,17,05,86.00
2017,02,28,17,06,84.40
2017,02,28,17,07,83.90
2017,02,28,17,08,81.70
2017,02,28,17,09,76.60
2017,02,28,17,10,75.00
2017,02,28,17,11,71.30
2017,02,28,17,12,70.00
2017,02,28,17,13,68.90
2017,02,28,17,14,67.00
2017,02,28,17,15,67.00